Regional Weather Roundup
Issued by NWS Green Bay, WI

Home | Current Version | Previous Version | Text Only | Print | Product List | Glossary On
Versions: 1 2 3 4 5 6 7 8 9 10 11 12 13 14 15 16 17 18 19 20 21 22 23 24 25 26 27 28 29 30 31 32 33 34 35 36 37 38 39 40 41 42 43 44 45 46 47 48 49 50
000
ASUS43 KGRB 291100
RWRGRB

NORTH-CENTRAL AND NORTHEAST WISCONSIN REGIONAL WEATHER ROUNDUP
NATIONAL WEATHER SERVICE GREEN BAY WI
600 AM CDT SUN MAY 29 2016

WIZ005-009-010>012-018-019-291200-
NORTH CENTRAL WISCONSIN

CITY           SKY/WX    TMP DP  RH WIND       PRES   REMARKS
IRONWOOD       CLOUDY    61  59  94 SW9       29.76R
MANITOWISH WTR NOT AVBL
ARBOR VITAE    NOT AVBL
EAGLE RIVER    NOT AVBL
LAND O LAKES   NOT AVBL
RHINELANDER    CLOUDY    60  58  92 SW8       29.84R
PHILLIPS       CLOUDY    59  59 100 S5        29.81S
ANTIGO         NOT AVBL
TOMAHAWK       NOT AVBL
MERRILL        NOT AVBL
$$

WIZ013-073-291200-
NORTHEAST WISCONSIN

CITY           SKY/WX    TMP DP  RH WIND       PRES   REMARKS
IRON MOUNTAIN  CLEAR     61  60  97 S6        29.82R
MARINETTE      CLEAR     63  62  97 SW7       29.86R
$$

WIZ017-030-035>037-045-291200-
CENTRAL WISCONSIN

CITY           SKY/WX    TMP DP  RH WIND       PRES   REMARKS
MEDFORD        NOT AVBL
WAUSAU         CLOUDY    65  61  87 SW7       29.82S
MOSINEE        CLOUDY    61  61 100 S7        29.85R
MARSHFIELD     MOCLDY    61  59  93 SW7       29.84R
WISC RAPIDS    CLOUDY    64  59  83 SW7       29.86R
STEVENS POINT  NOT AVBL
WAUPACA        CLOUDY    64  64 100 S5        29.87R
SHAWANO        CLEAR     64  61  93 CALM      29.86R
CLINTONVILLE   NOT AVBL
WAUTOMA        PTCLDY    62  60  93 S3        29.87R
$$

WIZ038-039-048-051-291200-
FOX VALLEY

CITY           SKY/WX    TMP DP  RH WIND       PRES   REMARKS
NWS GREEN BAY  CLEAR     64  62  93 S8        29.86R
APPLETON       PTCLDY    63  63 100 S8        29.86R
OSHKOSH        CLEAR     63  60  90 S9        29.88R
FOND DU LAC    CLEAR     64  61  90 S9        29.89R
$$

WIZ022-050-052-291200-
EAST CENTRAL WISCONSIN

CITY           SKY/WX    TMP DP  RH WIND       PRES   REMARKS
EPHRAIM        FOG       55  55 100 S3        29.86S VSB 1/2
STURGEON BAY   NOT AVBL
MANITOWOC      NOT AVBL
SHEBOYGAN      CLEAR     61  60  97 S7        29.90R
$$

LMZ563-521-522-541>543-291200-
LAKESHORE

STATION/POSITION TIME  TEMP    WIND        PRES    VSBY  WAVE
                       AIR SEA DIR/SP/G                  HT/PER
                 (UTC) (F)     (DEG/KT/KT) (MB)    (MI)  (FT/S)
SHEBOYGAN LKSHOR 1000   55     170/ 12/ 13 1012.4R
KEWAUNEE LKSHORE 1000   51     170/  6/  7 1010.9R
ALGOMA MARINA    1017          220/  8/ 10   N/A
NORTHPORT PIER   1000   53     160/  8/ 12 1011.2S
N MID LAKE BUOY  0950   51 46  190/ 14/ 14 1011.1R         3/ 5
SISTER BAY LKSHO 1020   54     170/ 11/ 16   N/A
CHAMBERS ISLAND  1000   60     150/  4/  7 1010.8R
MENOMINEE LKSHOR 1000   61     160/  9/ 11 1009.6R
$$



USA.gov is the U.S. government's official web portal to all federal, state and local government web resources and services.